Time,TemperatureF,DewpointF,PressureIn,WindDirection,WindDirectionDegrees,WindSpeedMPH,WindSpeedGustMPH,Humidity,HourlyPrecipIn,Conditions,Clouds,dailyrainin,SolarRadiationWatts/m^2,SoftwareType,DateUTC
2013-02-13 00:01:00,53.0,52.0,29.86,SE,141,1.0,5.0,97,0.07,,,0.68,0,weatherlink.com 1.10,2013-02-13 05:01:00,
2013-02-13 00:16:00,53.2,52.0,29.86,SE,134,1.0,5.0,97,0.07,,,0.70,0,weatherlink.com 1.10,2013-02-13 05:16:00,
2013-02-13 00:31:00,53.3,53.0,29.85,NNW,336,0.0,5.0,98,0.07,,,0.72,0,weatherlink.com 1.10,2013-02-13 05:31:00,
2013-02-13 00:46:00,53.6,53.0,29.85,NNW,347,1.0,8.0,98,0.07,,,0.74,0,weatherlink.com 1.10,2013-02-13 05:46:00,
2013-02-13 01:01:00,53.8,53.0,29.83,North,8,0.0,5.0,98,0.07,,,0.75,0,weatherlink.com 1.10,2013-02-13 06:01:00,
2013-02-13 01:16:00,54.0,54.0,29.81,NNW,339,0.0,7.0,98,0.07,,,0.77,0,weatherlink.com 1.10,2013-02-13 06:16:00,
2013-02-13 01:31:00,54.2,54.0,29.81,NE,45,4.0,7.0,98,0.07,,,0.79,0,weatherlink.com 1.10,2013-02-13 06:31:00,
2013-02-13 01:46:00,54.4,54.0,29.83,NNE,33,1.0,4.0,98,0.06,,,0.80,0,weatherlink.com 1.10,2013-02-13 06:46:00,
2013-02-13 02:01:00,54.7,54.0,29.83,NNE,30,0.0,3.0,98,0.07,,,0.82,0,weatherlink.com 1.10,2013-02-13 07:01:00,
2013-02-13 02:16:00,54.8,54.0,29.81,North,355,0.0,2.0,98,0.06,,,0.83,0,weatherlink.com 1.10,2013-02-13 07:16:00,
2013-02-13 02:31:00,54.7,54.0,29.80,NNE,29,0.0,1.0,98,0.06,,,0.85,0,weatherlink.com 1.10,2013-02-13 07:31:00,
2013-02-13 02:46:00,54.7,54.0,29.81,ESE,107,3.0,8.0,98,0.06,,,0.86,0,weatherlink.com 1.10,2013-02-13 07:46:00,
2013-02-13 03:01:00,54.4,54.0,29.80,ENE,63,6.0,7.0,98,0.06,,,0.88,0,weatherlink.com 1.10,2013-02-13 08:01:00,
2013-02-13 03:16:00,54.2,54.0,29.78,NE,42,0.0,6.0,98,0.06,,,0.89,0,weatherlink.com 1.10,2013-02-13 08:16:00,
2013-02-13 03:31:00,54.2,54.0,29.76,SW,223,0.0,3.0,98,0.06,,,0.00,0,weatherlink.com 1.10,2013-02-13 08:31:00,
2013-02-13 03:46:00,54.1,54.0,29.76,ESE,117,9.0,10.0,98,0.06,,,0.01,0,weatherlink.com 1.10,2013-02-13 08:46:00,
2013-02-13 04:01:00,53.9,53.0,29.75,ESE,118,3.0,10.0,98,0.06,,,0.03,0,weatherlink.com 1.10,2013-02-13 09:01:00,
2013-02-13 04:16:00,54.2,54.0,29.74,ENE,62,2.0,4.0,98,0.06,,,0.04,0,weatherlink.com 1.10,2013-02-13 09:16:00,
2013-02-13 04:31:00,54.8,54.0,29.75,NE,38,3.0,5.0,98,0.05,,,0.05,0,weatherlink.com 1.10,2013-02-13 09:31:00,
2013-02-13 04:46:00,54.8,54.0,29.75,North,9,0.0,0.0,98,0.06,,,0.07,0,weatherlink.com 1.10,2013-02-13 09:46:00,
2013-02-13 05:01:00,54.8,54.0,29.75,WNW,302,5.0,8.0,98,0.05,,,0.08,0,weatherlink.com 1.10,2013-02-13 10:01:00,
2013-02-13 05:16:00,54.9,54.0,29.75,NNE,16,2.0,5.0,98,0.05,,,0.09,0,weatherlink.com 1.10,2013-02-13 10:16:00,
2013-02-13 05:31:00,55.0,55.0,29.73,ENE,58,0.0,4.0,98,0.05,,,0.10,0,weatherlink.com 1.10,2013-02-13 10:31:00,
2013-02-13 05:46:00,55.5,55.0,29.74,East,93,0.0,3.0,98,0.05,,,0.12,0,weatherlink.com 1.10,2013-02-13 10:46:00,
2013-02-13 06:04:00,56.4,56.0,29.75,East,95,0.0,0.0,99,0.05,,,0.13,0,weatherlink.com 1.10,2013-02-13 11:04:00,
2013-02-13 06:17:00,56.7,56.0,29.74,SW,225,1.0,4.0,98,0.05,,,0.14,0,weatherlink.com 1.10,2013-02-13 11:17:00,
2013-02-13 06:31:00,60.5,60.0,29.75,SSW,198,3.0,8.0,99,0.05,,,0.15,0,weatherlink.com 1.10,2013-02-13 11:31:00,
2013-02-13 06:46:00,61.5,61.0,29.75,WSW,255,6.0,10.0,99,0.04,,,0.16,0,weatherlink.com 1.10,2013-02-13 11:46:00,
2013-02-13 07:01:00,60.8,60.0,29.76,WSW,243,1.0,7.0,98,0.05,,,0.18,0,weatherlink.com 1.10,2013-02-13 12:01:00,
2013-02-13 07:16:00,58.6,58.0,29.77,NW,307,2.0,4.0,97,0.05,,,0.19,0,weatherlink.com 1.10,2013-02-13 12:16:00,
2013-02-13 07:32:00,57.4,57.0,29.76,North,11,2.0,5.0,98,0.05,,,0.20,9,weatherlink.com 1.10,2013-02-13 12:32:00,
2013-02-13 07:46:00,56.2,56.0,29.77,North,10,0.0,4.0,98,0.05,,,0.21,11,weatherlink.com 1.10,2013-02-13 12:46:00,
2013-02-13 08:02:00,55.7,55.0,29.77,WSW,243,0.0,5.0,98,0.04,,,0.22,21,weatherlink.com 1.10,2013-02-13 13:02:00,
2013-02-13 08:16:00,55.7,55.0,29.78,West,260,0.0,1.0,98,0.04,,,0.23,44,weatherlink.com 1.10,2013-02-13 13:16:00,
2013-02-13 08:32:00,56.0,56.0,29.77,WSW,254,0.0,0.0,98,0.04,,,0.24,128,weatherlink.com 1.10,2013-02-13 13:32:00,
2013-02-13 08:47:00,56.3,56.0,29.79,South,169,3.0,4.0,99,0.04,,,0.25,65,weatherlink.com 1.10,2013-02-13 13:47:00,
2013-02-13 09:02:00,57.2,57.0,29.79,SSW,209,0.0,4.0,99,0.04,,,0.26,111,weatherlink.com 1.10,2013-02-13 14:02:00,
2013-02-13 09:17:00,57.8,58.0,29.79,SSW,209,0.0,0.0,99,0.04,,,0.27,149,weatherlink.com 1.10,2013-02-13 14:17:00,
2013-02-13 09:32:00,57.9,58.0,29.79,South,176,0.0,1.0,99,0.04,,,0.28,121,weatherlink.com 1.10,2013-02-13 14:32:00,
2013-02-13 09:47:00,59.2,59.0,29.79,South,191,3.0,6.0,99,0.04,,,0.29,220,weatherlink.com 1.10,2013-02-13 14:47:00,
2013-02-13 10:02:00,60.2,60.0,29.79,SSW,194,6.0,9.0,99,0.04,,,0.30,234,weatherlink.com 1.10,2013-02-13 15:02:00,
2013-02-13 10:17:00,61.8,62.0,29.78,SSW,203,4.0,10.0,99,0.04,,,0.31,327,weatherlink.com 1.10,2013-02-13 15:17:00,
2013-02-13 10:32:00,63.0,63.0,29.78,SW,230,4.0,13.0,99,0.04,,,0.32,624,weatherlink.com 1.10,2013-02-13 15:32:00,
2013-02-13 10:47:00,63.3,63.0,29.77,SW,225,4.0,12.0,99,0.04,,,0.33,216,weatherlink.com 1.10,2013-02-13 15:47:00,
2013-02-13 11:17:00,61.7,61.0,29.76,South,170,11.0,13.0,96,0.04,,,0.35,401,weatherlink.com 1.10,2013-02-13 16:17:00,
2013-02-13 11:32:00,60.6,60.0,29.75,South,179,9.0,12.0,98,0.04,,,0.36,575,weatherlink.com 1.10,2013-02-13 16:32:00,
2013-02-13 11:47:00,61.4,61.0,29.75,SSW,194,6.0,12.0,98,0.04,,,0.37,677,weatherlink.com 1.10,2013-02-13 16:47:00,
2013-02-13 12:02:00,62.6,62.0,29.74,SW,215,8.0,11.0,98,0.04,,,0.38,821,weatherlink.com 1.10,2013-02-13 17:02:00,
2013-02-13 12:17:00,63.4,63.0,29.75,SSW,199,7.0,10.0,98,0.04,,,0.39,281,weatherlink.com 1.10,2013-02-13 17:17:00,
2013-02-13 12:32:00,63.6,63.0,29.74,SSW,195,8.0,15.0,98,0.04,,,0.40,434,weatherlink.com 1.10,2013-02-13 17:32:00,
2013-02-13 12:47:00,62.5,61.0,29.73,SSW,193,10.0,15.0,96,0.04,,,0.41,589,weatherlink.com 1.10,2013-02-13 17:47:00,
2013-02-13 13:03:00,63.1,62.0,29.72,SSW,213,12.0,15.0,97,0.04,,,0.42,821,weatherlink.com 1.10,2013-02-13 18:03:00,
2013-02-13 13:18:00,66.0,65.0,29.71,SSW,198,5.0,15.0,97,0.04,,,0.43,508,weatherlink.com 1.10,2013-02-13 18:18:00,
2013-02-13 13:32:00,66.7,65.0,29.70,SSW,203,9.0,15.0,94,0.04,,,0.44,420,weatherlink.com 1.10,2013-02-13 18:32:00,
2013-02-13 13:49:00,66.5,65.0,29.69,SSE,166,9.0,15.0,93,0.04,,,0.45,663,weatherlink.com 1.10,2013-02-13 18:49:00,
2013-02-13 14:03:00,64.6,63.0,29.69,SSW,207,12.0,22.0,93,0.03,,,0.45,445,weatherlink.com 1.10,2013-02-13 19:03:00,
2013-02-13 14:17:00,63.9,62.0,29.68,SW,215,7.0,18.0,94,0.03,,,0.46,489,weatherlink.com 1.10,2013-02-13 19:17:00,
2013-02-13 14:32:00,63.1,62.0,29.69,South,178,10.0,18.0,95,0.03,,,0.47,267,weatherlink.com 1.10,2013-02-13 19:32:00,
2013-02-13 14:47:00,64.0,63.0,29.69,SSW,211,9.0,15.0,97,0.03,,,0.48,422,weatherlink.com 1.10,2013-02-13 19:47:00,
2013-02-13 15:02:00,65.7,64.0,29.70,SW,230,10.0,15.0,95,0.02,,,0.48,564,weatherlink.com 1.10,2013-02-13 20:02:00,
2013-02-13 15:17:00,66.8,65.0,29.69,SW,214,9.0,14.0,93,0.03,,,0.49,485,weatherlink.com 1.10,2013-02-13 20:17:00,
2013-02-13 15:33:00,67.6,65.0,29.69,SSW,212,10.0,16.0,91,0.03,,,0.50,475,weatherlink.com 1.10,2013-02-13 20:33:00,
2013-02-13 15:48:00,67.6,65.0,29.69,South,191,9.0,12.0,90,0.02,,,0.50,199,weatherlink.com 1.10,2013-02-13 20:48:00,
2013-02-13 16:03:00,66.3,64.0,29.71,WSW,243,4.0,13.0,92,0.03,,,0.51,155,weatherlink.com 1.10,2013-02-13 21:03:00,
2013-02-13 16:18:00,66.5,64.0,29.72,SSW,205,6.0,12.0,91,0.03,,,0.52,93,weatherlink.com 1.10,2013-02-13 21:18:00,
2013-02-13 16:33:00,69.3,60.0,29.74,West,276,14.0,21.0,71,0.02,,,0.52,49,weatherlink.com 1.10,2013-02-13 21:33:00,
2013-02-13 16:48:00,70.6,54.0,29.74,West,275,5.0,23.0,55,0.03,,,0.53,54,weatherlink.com 1.10,2013-02-13 21:48:00,
2013-02-13 17:03:00,70.0,51.0,29.75,West,281,14.0,27.0,51,0.02,,,0.53,19,weatherlink.com 1.10,2013-02-13 22:03:00,
2013-02-13 17:18:00,69.2,51.0,29.75,WNW,294,17.0,19.0,52,0.02,,,0.54,14,weatherlink.com 1.10,2013-02-13 22:18:00,
2013-02-13 17:33:00,68.5,48.0,29.77,WNW,287,21.0,29.0,49,0.02,,,0.54,21,weatherlink.com 1.10,2013-02-13 22:33:00,
2013-02-13 17:48:00,66.6,49.0,29.77,West,279,17.0,27.0,54,0.01,,,0.54,0,weatherlink.com 1.10,2013-02-13 22:48:00,
2013-02-13 18:03:00,65.8,50.0,29.77,WNW,287,7.0,17.0,58,0.02,,,0.55,0,weatherlink.com 1.10,2013-02-13 23:03:00,
2013-02-13 18:18:00,65.6,50.0,29.78,WSW,247,10.0,24.0,57,0.01,,,0.55,0,weatherlink.com 1.10,2013-02-13 23:18:00,
2013-02-13 18:33:00,64.8,51.0,29.78,West,279,11.0,16.0,61,0.02,,,0.56,0,weatherlink.com 1.10,2013-02-13 23:33:00,
2013-02-13 18:48:00,64.3,51.0,29.78,WNW,282,7.0,13.0,62,0.02,,,0.56,0,weatherlink.com 1.10,2013-02-13 23:48:00,
2013-02-13 19:03:00,64.2,51.0,29.78,SW,229,4.0,11.0,62,0.01,,,0.56,0,weatherlink.com 1.10,2013-02-14 00:03:00,
2013-02-13 19:18:00,63.9,51.0,29.79,WSW,250,2.0,10.0,63,0.01,,,0.56,0,weatherlink.com 1.10,2013-02-14 00:18:00,
2013-02-13 19:33:00,63.7,51.0,29.78,South,186,5.0,8.0,64,0.01,,,0.57,0,weatherlink.com 1.10,2013-02-14 00:33:00,
2013-02-13 19:48:00,63.8,51.0,29.78,West,265,9.0,11.0,63,0.01,,,0.57,0,weatherlink.com 1.10,2013-02-14 00:48:00,
2013-02-13 20:03:00,64.0,51.0,29.79,WSW,241,12.0,18.0,62,0.01,,,0.57,0,weatherlink.com 1.10,2013-02-14 01:03:00,
2013-02-13 20:18:00,64.0,50.0,29.80,West,265,15.0,17.0,61,0.02,,,0.58,0,weatherlink.com 1.10,2013-02-14 01:18:00,
2013-02-13 20:33:00,63.9,50.0,29.79,WNW,287,17.0,24.0,61,0.01,,,0.58,0,weatherlink.com 1.10,2013-02-14 01:33:00,
2013-02-13 20:48:00,63.5,50.0,29.79,WNW,297,10.0,18.0,61,0.01,,,0.58,0,weatherlink.com 1.10,2013-02-14 01:48:00,
2013-02-13 21:03:00,62.3,50.0,29.80,WNW,301,12.0,18.0,64,0.02,,,0.59,0,weatherlink.com 1.10,2013-02-14 02:03:00,
2013-02-13 21:18:00,61.1,50.0,29.83,WNW,302,13.0,26.0,68,0.01,,,0.59,0,weatherlink.com 1.10,2013-02-14 02:18:00,
2013-02-13 21:33:00,58.3,51.0,29.83,NW,318,10.0,25.0,76,0.01,,,0.59,0,weatherlink.com 1.10,2013-02-14 02:33:00,
2013-02-13 21:48:00,56.9,50.0,29.83,WNW,299,9.0,21.0,79,0.01,,,0.59,0,weatherlink.com 1.10,2013-02-14 02:48:00,
2013-02-13 22:03:00,55.6,51.0,29.84,WNW,287,11.0,22.0,84,0.01,,,0.60,0,weatherlink.com 1.10,2013-02-14 03:03:00,
2013-02-13 22:18:00,54.8,51.0,29.86,WNW,287,6.0,17.0,88,0.01,,,0.60,0,weatherlink.com 1.10,2013-02-14 03:18:00,
2013-02-13 22:33:00,54.5,51.0,29.87,West,277,11.0,14.0,89,0.01,,,0.60,0,weatherlink.com 1.10,2013-02-14 03:33:00,
2013-02-13 22:48:00,54.5,51.0,29.88,WNW,288,13.0,16.0,89,0.01,,,0.60,0,weatherlink.com 1.10,2013-02-14 03:48:00,
2013-02-13 23:03:00,54.4,51.0,29.87,WNW,286,9.0,14.0,89,0.00,,,0.60,0,weatherlink.com 1.10,2013-02-14 04:03:00,
2013-02-13 23:18:00,54.2,51.0,29.86,WNW,299,7.0,14.0,89,0.00,,,0.60,0,weatherlink.com 1.10,2013-02-14 04:18:00,
2013-02-13 23:48:00,53.8,50.0,29.86,NW,307,9.0,13.0,88,0.01,,,0.61,0,weatherlink.com 1.10,2013-02-14 04:48:00,